Regional Weather Roundup
Issued by NWS

Home | Current Version | Previous Version | Text Only | Print | Product List | Glossary Off
Versions: 1 2 3 4 5 6 7 8 9 10 11 12 13 14 15 16 17 18 19 20 21 22 23 24 25 26 27 28 29 30 31 32 33 34 35 36 37 38 39 40 41 42 43 44 45 46 47 48 49 50

336
ASUS43 KIND 242059
RWRIN

WEATHER ROUNDUP FOR INDIANA
NATIONAL WEATHER SERVICE INDIANAPOLIS IN
500 PM EDT SAT SEP 24 2016

NOTE: "FAIR" INDICATES FEW OR NO CLOUDS BELOW 12,000 FEET WITH NO
SIGNIFICANT WEATHER AND/OR OBSTRUCTIONS TO VISIBILITY.

* - STATION DOES NOT REPORT WEATHER SUCH AS PRECIPITATION OR FOG.

+ - STATION NOT QUALITY CONTROLLED BY THE NATIONAL WEATHER SERVICE.
    USE DATA WITH CAUTION...ESPECIALLY DEWPOINT AND RELATIVE
    HUMIDITY OBSERVATIONS.

INZ001>003-010>013-019-020-242200-
NORTHWEST INDIANA

CITY           SKY/WX    TMP DP  RH WIND       PRES   REMARKS
GARY /AIRPORT/ MOSUNNY   75  66  73 NE14      30.15F
RENSSELAER +   SUNNY     81  64  57 E8        30.12S

$$

LMZ046-743>745-242200-
SOUTHERN LAKE MICHIGAN

STATION/POSITION TIME  TEMP    WIND        PRES    WAVE
                       AIR SEA DIR/SP/G            HT
                 (UTC) (F)     (DEG/KT/KT) (MB)    (FT)
BURNS HARBOR     2008   70      50/ 14/ 16 1021.0F
MICHIGAN CITY    2000   69      10/ 13/ 14   N/A
5NW MICH CITY    2000   70 71   40/ 14/ 17   N/A     3

$$

INZ004-005-014>016-021>024-242200-
NORTH CENTRAL INDIANA

CITY           SKY/WX    TMP DP  RH WIND       PRES   REMARKS
GOSHEN         MOSUNNY   77  58  51 E5        30.16F
SOUTH BEND     SUNNY     74  62  66 E7        30.16F

$$

INZ006>009-017-018-025>027-242200-
NORTHEAST INDIANA

CITY           SKY/WX    TMP DP  RH WIND       PRES   REMARKS
ANGOLA *+      SUNNY     73  66  78 E5        30.18S
FORT WAYNE     MOSUNNY   75  60  59 E8        30.16F
KENDALLVILLE + SUNNY     74  56  53 CALM      30.17F

$$

INZ028-029-035-036-043>045-051>053-242200-
WEST CENTRAL INDIANA

CITY           SKY/WX    TMP DP  RH WIND       PRES   REMARKS
CRAWFORDSVL +  SUNNY     82  66  58 NE7       30.11S
GREENCASTLE +  SUNNY     82  70  65 E6        30.11S
LAFAYETTE      SUNNY     79  68  69 E9        30.10F
TERRE HAUTE    MOSUNNY   85  67  54 E9        30.08F

$$

INZ030>032-037>040-046>048-054>057-064-065-242200-
CENTRAL INDIANA

CITY           SKY/WX    TMP DP  RH WIND       PRES   REMARKS
COLUMBUS       MOSUNNY   84  68  58 CALM      30.10F
INDIANAPOLIS   MOSUNNY   83  66  56 E3        30.11S
-EAGLE CREEK   SUNNY     82  67  60 E5        30.11F
MT COMFORT *+  SUNNY     81  68  65 NE8       30.13S
SHELBYVILLE    SUNNY     86  65  49 E8        30.10F

$$

INZ033-034-041-042-049-050-058-059-242200-
EAST CENTRAL INDIANA

CITY           SKY/WX    TMP DP  RH WIND       PRES   REMARKS
MUNCIE         MOSUNNY   79  65  62 NE6       30.15S

$$

INZ060-061-067>069-081>083-085>088-242200-
SOUTHWEST INDIANA

CITY           SKY/WX    TMP DP  RH WIND       PRES   REMARKS
EVANSVILLE     MOSUNNY   91  62  37 VRB6      30.06F
HUNTINGBURG *+   N/A     88  63  42 CALM      30.07F

$$

INZ062-063-066-070>080-084-089>092-242200-
SOUTH CENTRAL AND SOUTHEAST INDIANA

CITY           SKY/WX    TMP DP  RH WIND       PRES   REMARKS
BLOOMINGTON    MOSUNNY   87  67  51 N3        30.10S
MADISON *+     MOSUNNY   86  63  45 NW3       30.11F
SEYMOUR +      SUNNY     88  63  42 E3        30.08F

$$





USA.gov is the U.S. government's official web portal to all federal, state and local government web resources and services.